Weather History for KHRO - October, 2011

Change the Weather History Date:

Thursday, October 13, 2011

  Actual Average Record
Temperature  
Mean Temperature 64 °F 60 °F  
Max Temperature 72 °F 71 °F 90 °F (1899)
Min Temperature 55 °F 48 °F 23 °F (1907)
Degree Days  
Heating Degree Days 1 6  
Month to date heating degree days 28 66  
Since 1 July heating degree days 96 109  
Cooling Degree Days 0 1  
Month to date cooling degree days 20 19  
Year to date cooling degree days 1849 1398  
Growing Degree Days 14 (Base 50)    
Moisture  
Dew Point 48 °F    
Average Humidity 64    
Maximum Humidity 93    
Minimum Humidity 35    
Precipitation  
Precipitation 0.00 in 0.10 in 1.90 in (1907)
Month to date precipitation 0.96 1.43  
Year to date precipitation 41.06 34.59  
Snow  
Snow 0.00 in 0.00 in - ()
Month to date snowfall 0.0 0.0  
Since 1 July snowfall 0.0 0.0  
Since 1 September snowfall 0.0 0.0  
Snow Depth 0.00 in    
Sea Level Pressure  
Sea Level Pressure 29.81 in    
Wind  
Wind Speed 9 mph (WNW)    
Max Wind Speed 20 mph    
Max Gust Speed 28 mph    
Visibility 10 miles    
Events      
T = Trace of Precipitation, MM = Missing Value Source: NWS Daily Summary

Daily Weather History Graph

Daily Weather History Graph

Search for Another Location

Airport or City:

Trip Planner

Search our weather history database for the weather conditions in past years. The results will help you decide how hot, cold, wet, or windy it might be!

Date:

Astronomy

Oct. 13, 2011 Rise Set
Actual Time 7:17 AM CDT 6:39 PM CDT
Civil Twilight 6:51 AM CDT 7:05 PM CDT
Nautical Twilight 6:21 AM CDT 7:35 PM CDT
Astronomical Twilight 5:52 AM CDT 8:04 PM CDT
Moon 7:20 PM CDT (10/13) 8:45 AM CDT (10/13)
Length of Visible Light 12h 13m
Length of Day
11h 21m
Full, 98% of the Moon is Illuminated
Oct 13
Full
Oct 19
Last Quarter
Oct 26
New
Nov 2
First Quarter
Nov 10
Full

Hourly Weather History & Observations

Time (CDT) Temp. Dew Point Humidity Pressure Visibility Wind Dir Wind Speed Gust Speed Precip Events Conditions
12:53 AM 60.8 °F 53.6 °F 77% 29.74 in 10.0 mi West 10.4 mph - N/A   Scattered Clouds
1:53 AM 57.9 °F 54.0 °F 87% 29.73 in 10.0 mi West 8.1 mph - N/A   Partly Cloudy
2:36 AM 59.0 °F 53.6 °F 82% 29.77 in 10.0 mi WNW 8.1 mph - N/A   Mostly Cloudy
2:53 AM 57.9 °F 54.0 °F 87% 29.73 in 10.0 mi WNW 5.8 mph - N/A   Mostly Cloudy
3:53 AM 57.0 °F 54.0 °F 89% 29.75 in 10.0 mi West 9.2 mph - N/A   Clear
4:53 AM 57.0 °F 54.0 °F 89% 29.76 in 8.0 mi WNW 8.1 mph - N/A   Clear
5:53 AM 55.9 °F 53.1 °F 90% 29.78 in 9.0 mi WNW 8.1 mph - N/A   Clear
6:53 AM 55.9 °F 52.0 °F 87% 29.79 in 10.0 mi West 8.1 mph - N/A   Clear
7:53 AM 55.9 °F 52.0 °F 87% 29.81 in 10.0 mi West 8.1 mph - N/A   Clear
8:53 AM 57.9 °F 51.1 °F 78% 29.83 in 10.0 mi West 8.1 mph 18.4 mph N/A   Clear
9:53 AM 61.0 °F 51.1 °F 70% 29.84 in 10.0 mi WNW 10.4 mph 19.6 mph N/A   Clear
10:53 AM 64.9 °F 50.0 °F 58% 29.85 in 10.0 mi WNW 12.7 mph 21.9 mph N/A   Clear
11:53 AM 68.0 °F 50.0 °F 52% 29.85 in 10.0 mi NW 11.5 mph 23.0 mph N/A   Clear
12:53 PM 70.0 °F 46.9 °F 44% 29.83 in 10.0 mi WNW 10.4 mph 21.9 mph N/A   Clear
1:53 PM 71.1 °F 43.0 °F 36% 29.82 in 10.0 mi NW 13.8 mph 26.5 mph N/A   Clear
2:53 PM 71.1 °F 42.1 °F 35% 29.80 in 10.0 mi WNW 13.8 mph 24.2 mph N/A   Clear
3:53 PM 72.0 °F 44.1 °F 37% 29.80 in 10.0 mi WNW 11.5 mph 20.7 mph N/A   Clear
4:53 PM 71.1 °F 42.1 °F 35% 29.80 in 10.0 mi WNW 10.4 mph - N/A   Clear
5:53 PM 68.0 °F 42.1 °F 39% 29.80 in 10.0 mi WNW 8.1 mph - N/A   Clear
6:53 PM 64.4 °F 42.8 °F 45% 29.83 in 10.0 mi West 4.6 mph - N/A   Clear
7:53 PM 60.1 °F 43.0 °F 53% 29.83 in 10.0 mi West 4.6 mph - N/A   Clear
8:53 PM 60.1 °F 43.0 °F 53% 29.85 in 10.0 mi West 6.9 mph - N/A   Clear
9:53 PM 60.1 °F 41.0 °F 49% 29.86 in 10.0 mi West 5.8 mph - N/A   Clear
10:53 PM 59.0 °F 41.0 °F 51% 29.88 in 10.0 mi WNW 6.9 mph - N/A   Clear
11:53 PM 57.9 °F 39.9 °F 51% 29.88 in 10.0 mi West 5.8 mph - N/A   Clear